{"data":{"norad_id":68122,"epoch":"2026-05-25T03:24:43.569216Z","epoch_age_seconds":73238,"freshness":"FRESH","line1":"1 68122U 26044X   26145.14217094  .00016927  00000+0  52541-3 0  9995","line2":"2 68122  97.2849 105.8346 0001234  88.0482 272.0902 15.33448959 13307","mean_motion":15.33448959,"eccentricity":0.0001234,"inclination_deg":97.2849,"raan_deg":105.8346,"arg_perigee_deg":88.0482,"mean_anomaly_deg":272.0902,"bstar":0.00052541,"rev_number":1330,"period_min":93.905962213379,"perigee_km":464.68688662489,"apogee_km":466.37590398485,"semimajor_km":6843.6683953049,"source":"CELESTRAK","updated_at":"2026-05-25T13:38:21.845391Z"}}